• In Belgium
  • List of Countries
  • For 7 days
  • Water Temperature
  • Satellite Maps
  • Weather Map
  • Weather Widgets
  • user-avatar
    Login

    Hourly Weather SanFrancisco

    Today, 19 January, Friday

    Time Temperature Precipitation Wind Pressure Humidity
    00:00 +22°C° 0 mm 3 mps 709 mmHg 89%
    01:00 +22°C° 0 mm 3 mps 709 mmHg 90%
    02:00 +22°C° 0 mm 3 mps 709 mmHg 90%
    03:00 +22°C° 0 mm 3 mps 709 mmHg 90%
    04:00 +22°C° 0 mm 3 mps 709 mmHg 90%
    05:00 +22°C° 0 mm 3 mps 709 mmHg 89%
    06:00 +22°C° 0 mm 3 mps 709 mmHg 88%
    07:00 +22°C° 0 mm 3 mps 710 mmHg 87%
    08:00 +25°C° 0 mm 4 mps 710 mmHg 77%
    09:00 +28°C° 0 mm 4 mps 711 mmHg 66%
    10:00 +30°C° 0 mm 4 mps 711 mmHg 56%
    11:00 +32°C° 0.1 mm 4 mps 711 mmHg 52%
    12:00 +33°C° 0.1 mm 4 mps 710 mmHg 47%
    13:00 +34°C° 0.1 mm 4 mps 710 mmHg 43%
    14:00 +34°C° 0 mm 4 mps 709 mmHg 45%
    15:00 +33°C° 0 mm 4 mps 709 mmHg 47%
    16:00 +32°C° 0 mm 4 mps 708 mmHg 50%
    17:00 +30°C° 0.1 mm 4 mps 708 mmHg 57%
    18:00 +28°C° 0.1 mm 4 mps 708 mmHg 64%
    19:00 +26°C° 0.1 mm 4 mps 708 mmHg 71%
    20:00 +26°C° 0 mm 4 mps 709 mmHg 76%
    21:00 +25°C° 0 mm 4 mps 709 mmHg 80%
    22:00 +23°C° 0 mm 4 mps 709 mmHg 85%
    23:00 +23°C° 0 mm 4 mps 709 mmHg 85%

    Tomorrow, 20 January, Saturday

    Time Temperature Precipitation Wind Pressure Humidity
    00:00 +23°C° 0 mm 4 mps 709 mmHg 86%
    01:00 +22°C° 0 mm 4 mps 709 mmHg 87%
    02:00 +22°C° 0 mm 4 mps 709 mmHg 87%
    03:00 +22°C° 0 mm 4 mps 708 mmHg 87%
    04:00 +22°C° 0 mm 4 mps 708 mmHg 87%
    05:00 +22°C° 0 mm 4 mps 709 mmHg 86%
    06:00 +22°C° 0 mm 4 mps 709 mmHg 85%
    07:00 +22°C° 0 mm 4 mps 709 mmHg 84%
    08:00 +25°C° 0 mm 4 mps 710 mmHg 74%
    09:00 +27°C° 0 mm 5 mps 711 mmHg 64%
    10:00 +30°C° 0 mm 5 mps 711 mmHg 54%
    11:00 +32°C° 0 mm 5 mps 711 mmHg 49%
    12:00 +33°C° 0 mm 5 mps 710 mmHg 44%
    13:00 +34°C° 0 mm 5 mps 709 mmHg 39%
    14:00 +34°C° 0 mm 5 mps 709 mmHg 41%
    15:00 +33°C° 0 mm 5 mps 708 mmHg 44%
    16:00 +32°C° 0 mm 5 mps 708 mmHg 46%
    17:00 +30°C° 0 mm 5 mps 708 mmHg 53%
    18:00 +28°C° 0 mm 5 mps 708 mmHg 61%
    19:00 +26°C° 0 mm 5 mps 708 mmHg 68%
    20:00 +25°C° 0 mm 5 mps 709 mmHg 73%
    21:00 +25°C° 0 mm 5 mps 709 mmHg 78%
    22:00 +23°C° 0 mm 5 mps 709 mmHg 82%
    23:00 +23°C° 0 mm 5 mps 709 mmHg 84%

    Day after tomorrow, 21 January, Sunday

    Time Temperature Precipitation Wind Pressure Humidity
    00:00 +22°C° 0 mm 4 mps 709 mmHg 85%
    01:00 +22°C° 0 mm 4 mps 708 mmHg 86%
    02:00 +22°C° 0 mm 4 mps 708 mmHg 87%
    03:00 +22°C° 0 mm 4 mps 708 mmHg 88%
    04:00 +21°C° 0 mm 4 mps 708 mmHg 88%
    05:00 +21°C° 0 mm 4 mps 708 mmHg 87%
    06:00 +22°C° 0 mm 4 mps 708 mmHg 86%
    07:00 +22°C° 0 mm 4 mps 709 mmHg 85%
    08:00 +25°C° 0 mm 4 mps 709 mmHg 72%
    09:00 +28°C° 0 mm 5 mps 710 mmHg 60%
    10:00 +32°C° 0 mm 6 mps 711 mmHg 47%
    11:00 +33°C° 0 mm 6 mps 710 mmHg 43%
    12:00 +34°C° 0 mm 6 mps 709 mmHg 38%
    13:00 +35°C° 0 mm 6 mps 708 mmHg 34%
    14:00 +35°C° 0 mm 6 mps 708 mmHg 35%
    15:00 +34°C° 0 mm 5 mps 707 mmHg 36%
    16:00 +34°C° 0 mm 5 mps 706 mmHg 38%
    17:00 +30°C° 0 mm 5 mps 707 mmHg 46%
    18:00 +28°C° 0 mm 5 mps 707 mmHg 55%
    19:00 +26°C° 0 mm 5 mps 707 mmHg 64%
    20:00 +25°C° 0 mm 5 mps 708 mmHg 70%
    21:00 +25°C° 0 mm 5 mps 708 mmHg 75%
    22:00 +23°C° 0 mm 5 mps 708 mmHg 80%
    23:00 +22°C° 0 mm 4 mps 708 mmHg 82%

    22 January, Monday

    Time Temperature Precipitation Wind Pressure Humidity
    00:00 +22°C° 0 mm 4 mps 707 mmHg 84%
    01:00 +22°C° 0 mm 4 mps 707 mmHg 85%
    02:00 +22°C° 0 mm 4 mps 707 mmHg 86%
    03:00 +21°C° 0 mm 4 mps 707 mmHg 86%
    04:00 +21°C° 0 mm 4 mps 707 mmHg 87%
    05:00 +21°C° 0 mm 4 mps 707 mmHg 85%
    06:00 +22°C° 0 mm 4 mps 708 mmHg 84%
    07:00 +22°C° 0 mm 4 mps 708 mmHg 83%
    08:00 +26°C° 0 mm 4 mps 709 mmHg 70%
    09:00 +28°C° 0 mm 5 mps 710 mmHg 57%
    10:00 +32°C° 0 mm 5 mps 710 mmHg 44%
    11:00 +33°C° 0 mm 5 mps 709 mmHg 40%
    12:00 +34°C° 0 mm 5 mps 709 mmHg 37%
    13:00 +35°C° 0 mm 5 mps 708 mmHg 34%
    14:00 +35°C° 0 mm 5 mps 707 mmHg 36%
    15:00 +34°C° 0 mm 5 mps 707 mmHg 38%
    16:00 +34°C° 0 mm 5 mps 706 mmHg 41%
    17:00 +32°C° 0 mm 5 mps 706 mmHg 49%
    18:00 +29°C° 0 mm 5 mps 707 mmHg 58%
    19:00 +27°C° 0 mm 4 mps 707 mmHg 67%
    20:00 +26°C° 0 mm 4 mps 707 mmHg 72%
    21:00 +25°C° 0 mm 4 mps 708 mmHg 78%
    22:00 +23°C° 0 mm 4 mps 708 mmHg 83%
    23:00 +23°C° 0 mm 4 mps 708 mmHg 84%

    23 January, Tuesday

    Time Temperature Precipitation Wind Pressure Humidity
    00:00 +23°C° 0 mm 4 mps 707 mmHg 86%
    01:00 +22°C° 0 mm 4 mps 707 mmHg 87%
    02:00 +22°C° 0 mm 4 mps 707 mmHg 87%
    03:00 +22°C° 0 mm 3 mps 707 mmHg 88%
    04:00 +22°C° 0 mm 3 mps 707 mmHg 88%
    05:00 +22°C° 0 mm 4 mps 707 mmHg 87%
    06:00 +22°C° 0 mm 4 mps 708 mmHg 86%
    07:00 +22°C° 0 mm 4 mps 708 mmHg 85%
    08:00 +25°C° 0 mm 4 mps 709 mmHg 73%
    09:00 +28°C° 0 mm 5 mps 709 mmHg 62%
    10:00 +30°C° 0 mm 5 mps 710 mmHg 51%
    11:00 +32°C° 0 mm 5 mps 709 mmHg 46%
    12:00 +33°C° 0 mm 5 mps 708 mmHg 41%
    13:00 +34°C° 0 mm 5 mps 708 mmHg 37%
    14:00 +34°C° 0 mm 5 mps 707 mmHg 39%
    15:00 +33°C° 0 mm 5 mps 707 mmHg 42%
    16:00 +33°C° 0 mm 5 mps 706 mmHg 44%
    17:00 +30°C° 0 mm 5 mps 706 mmHg 50%
    18:00 +28°C° 0 mm 4 mps 707 mmHg 57%
    19:00 +27°C° 0 mm 4 mps 707 mmHg 63%
    20:00 +26°C° 0 mm 4 mps 707 mmHg 69%
    21:00 +25°C° 0 mm 4 mps 707 mmHg 75%
    22:00 +23°C° 0 mm 4 mps 708 mmHg 81%
    23:00 +22°C° 0 mm 4 mps 707 mmHg 83%

    24 January, Wednesday

    Time Temperature Precipitation Wind Pressure Humidity
    00:00 +22°C° 0 mm 4 mps 707 mmHg 85%
    01:00 +22°C° 0 mm 4 mps 707 mmHg 87%
    02:00 +22°C° 0 mm 4 mps 707 mmHg 87%
    03:00 +21°C° 0 mm 4 mps 707 mmHg 87%
    04:00 +21°C° 0 mm 4 mps 707 mmHg 87%
    05:00 +21°C° 0 mm 4 mps 707 mmHg 85%
    06:00 +22°C° 0 mm 4 mps 708 mmHg 84%
    07:00 +22°C° 0 mm 4 mps 708 mmHg 83%
    08:00 +25°C° 0 mm 4 mps 709 mmHg 73%
    09:00 +27°C° 0 mm 5 mps 709 mmHg 63%
    10:00 +29°C° 0 mm 5 mps 710 mmHg 53%
    11:00 +32°C° 0 mm 5 mps 709 mmHg 47%
    12:00 +33°C° 0 mm 5 mps 709 mmHg 42%
    13:00 +35°C° 0 mm 5 mps 708 mmHg 36%
    14:00 +34°C° 0 mm 5 mps 707 mmHg 38%
    15:00 +33°C° 0 mm 5 mps 707 mmHg 39%
    16:00 +33°C° 0 mm 5 mps 706 mmHg 41%
    17:00 +30°C° 0 mm 5 mps 706 mmHg 48%
    18:00 +28°C° 0 mm 5 mps 707 mmHg 55%
    19:00 +26°C° 0 mm 5 mps 707 mmHg 63%
    20:00 +26°C° 0 mm 4 mps 707 mmHg 69%
    21:00 +25°C° 0 mm 4 mps 708 mmHg 75%
    22:00 +23°C° 0 mm 4 mps 708 mmHg 81%
    23:00 +22°C° 0 mm 4 mps 708 mmHg 83%
    Show more